sat.trackr.live / text

‹ back to catalog

PRAETORIAN SDA_602

NORAD 65565 · 2025-203A

PAYLOAD ACTIVE UNKNOWN

§ Identity

Operator
Country
US
Launch date
2025-09-10
Launch site
AFWTR
Launch vehicle
Mass (kg)
RCS (m²)

Purposes: military

External: N2YO · Heavens-Above · Gunter

§ Orbital elements

Epoch: 2026-09-20T00:33:05.935968Z

Period
104.05 min
Inclination
81.2997°
Eccentricity
0.0005032
Mean motion
13.83893209 rev/d
Perigee alt
946.4 km
Apogee alt
953.8 km
Semi-major
7,328.2 km
B*
3.8257e-5
RAAN
282.9855°
Arg perigee
305.2493°
Mean anomaly
54.8192°
Rev number
5,181

§ Raw data

PRAETORIAN SDA_6021 65565U 25203A   26263.02298537  .00000054  00000+0  38257-4 0  99912 65565  81.2997 282.9855 0005032 305.2493  54.8192 13.83893209 51810

JSON: /api/v1/satellites/65565 · /tle

For live sub-satellite position, see the globe view (requires WebGL).

§ Visibility from observer

Set your observer location to see the next 7 days of passes ≥ 10°. The values pass through the URL so the page stays shareable.

No JS? Fill the form by hand. The geolocation button needs JavaScript.